DLH35X LIMJ-EDDB

Flight info

Callsign DLH35X
Flight time N/A
Altitude 34000
Route GEN DCT OSKOR DCT NESTI DCT TAGIP DCT BRENO DCT ALUTU DCT TIVDA DCT ETVIS DCT NAVEK DCT GAVLI T203 ATGUP ATGUP1R
Aircraft A321/M-SDE3FGHIRWY/LB1

Departure

Time 2026-04-21 19:45
Airport Genoa Cristoforo Colombo Airport (LIMJ)

Arrival

Time N/A
Airport Berlin Brandenburg Airport (EDDB)
Time Latitude Longitude Altitude Speed Heading
2026-04-21 19:07 44.41430 8.84948 20 ft 0 kts 59°
2026-04-21 19:36 44.41420 8.84923 20 ft 4 kts 59°
2026-04-21 19:36 44.41407 8.84890 20 ft 4 kts 60°
2026-04-21 19:37 44.41393 8.84858 23 ft 4 kts 64°
2026-04-21 19:37 44.41384 8.84823 24 ft 4 kts 81°
2026-04-21 19:37 44.41384 8.84786 24 ft 4 kts 102°
2026-04-21 19:37 44.41385 8.84779 24 ft 0 kts 105°
2026-04-21 19:40 44.41383 8.84788 22 ft 3 kts 105°
2026-04-21 19:40 44.41376 8.84827 20 ft 5 kts 105°
2026-04-21 19:40 44.41365 8.84882 20 ft 6 kts 105°
2026-04-21 19:41 44.41344 8.84942 21 ft 7 kts 143°
2026-04-21 19:41 44.41287 8.84937 20 ft 10 kts 194°
2026-04-21 19:41 44.41218 8.84911 20 ft 11 kts 195°
2026-04-21 19:41 44.41185 8.84899 20 ft 0 kts 195°
2026-04-21 19:44 44.41168 8.84892 19 ft 6 kts 195°
2026-04-21 19:44 44.41106 8.84852 19 ft 13 kts 207°
2026-04-21 19:44 44.41087 8.84740 20 ft 19 kts 285°
2026-04-21 19:44 44.41192 8.84205 22 ft 97 kts 285°
2026-04-21 19:45 44.41431 8.82972 70 ft 158 kts 285°
2026-04-21 19:45 44.41729 8.81478 838 ft 159 kts 284°
2026-04-21 19:45 44.41663 8.79948 1670 ft 162 kts 245°
2026-04-21 19:45 44.40919 8.78790 2227 ft 164 kts 209°
2026-04-21 19:46 44.39819 8.78537 2628 ft 167 kts 167°
2026-04-21 19:46 44.38759 8.79210 3057 ft 169 kts 151°
2026-04-21 19:46 44.37688 8.80013 3313 ft 186 kts 152°
2026-04-21 19:46 44.36478 8.80879 3593 ft 201 kts 153°
2026-04-21 19:47 44.35188 8.81670 4109 ft 204 kts 167°
2026-04-21 19:47 44.33770 8.81731 4664 ft 206 kts 184°
2026-04-21 19:47 44.32333 8.81623 5250 ft 207 kts 183°
2026-04-21 19:47 44.30889 8.81524 5808 ft 209 kts 183°
2026-04-21 19:48 44.29430 8.81427 6346 ft 211 kts 184°
2026-04-21 19:48 44.27957 8.81325 6850 ft 213 kts 184°
2026-04-21 19:48 44.26491 8.81225 7349 ft 214 kts 185°
2026-04-21 19:48 44.25001 8.81125 7843 ft 216 kts 185°
2026-04-21 19:49 44.23492 8.81025 8329 ft 218 kts 186°
2026-04-21 19:49 44.21967 8.80922 8813 ft 221 kts 186°
2026-04-21 19:49 44.20425 8.80817 9298 ft 223 kts 186°
2026-04-21 19:49 44.18867 8.80711 9783 ft 225 kts 187°
2026-04-21 19:50 44.17827 8.80640 10080 ft 227 kts 187°
2026-04-21 19:50 44.15702 8.80499 10639 ft 230 kts 187°
2026-04-21 19:50 44.14088 8.80609 11051 ft 237 kts 171°
2026-04-21 19:50 44.12528 8.81484 11367 ft 251 kts 150°
2026-04-21 19:51 44.11132 8.83040 11499 ft 269 kts 141°
2026-04-21 19:51 44.09668 8.84773 11625 ft 285 kts 141°
2026-04-21 19:51 44.08104 8.86609 11727 ft 305 kts 141°
2026-04-21 19:51 44.06671 8.88898 11857 ft 325 kts 118°
2026-04-21 19:52 44.05982 8.91951 11995 ft 341 kts 91°
2026-04-21 19:52 44.06325 8.95237 12133 ft 351 kts 64°
2026-04-21 19:52 44.07697 8.98033 12268 ft 355 kts 37°
2026-04-21 19:52 44.09743 9.00021 12416 ft 365 kts 28°
2026-04-21 19:53 44.11885 9.01910 13143 ft 360 kts 27°
2026-04-21 19:53 44.13991 9.03762 13894 ft 358 kts 27°
2026-04-21 19:53 44.16069 9.05595 14414 ft 359 kts 27°
2026-04-21 19:53 44.18189 9.07471 14923 ft 362 kts 27°
2026-04-21 19:54 44.20321 9.09361 15436 ft 365 kts 26°
2026-04-21 19:54 44.22475 9.11275 15881 ft 369 kts 26°
2026-04-21 19:54 44.24648 9.13211 16382 ft 372 kts 26°
2026-04-21 19:54 44.26838 9.15160 16875 ft 375 kts 25°
2026-04-21 19:55 44.29044 9.17124 17343 ft 378 kts 25°
2026-04-21 19:55 44.31271 9.19109 17803 ft 381 kts 25°
2026-04-21 19:55 44.33506 9.21108 18287 ft 382 kts 25°
2026-04-21 19:55 44.35750 9.23117 18705 ft 384 kts 25°
2026-04-21 19:56 44.38007 9.25140 19129 ft 387 kts 25°
2026-04-21 19:56 44.40276 9.27174 19509 ft 389 kts 25°
2026-04-21 19:56 44.42531 9.29196 19927 ft 392 kts 25°
2026-04-21 19:56 44.44832 9.31264 20367 ft 394 kts 25°
2026-04-21 19:57 44.47143 9.33345 20757 ft 396 kts 25°
2026-04-21 19:57 44.49469 9.35440 21159 ft 399 kts 25°
2026-04-21 19:57 44.51808 9.37547 21575 ft 401 kts 25°